BCS7165 EDDK-LIPE

Flight info

Callsign BCS7165
Flight time 1h 10m
Altitude 34000
Route KUMIK2Q KUMIK Y854 BOMBI DCT GIGET DCT ABUKA/N0443F370 DCT LALMI DCT BATUB DCT TIRUL M738 NATAG DCT LORLO DCT UNTAD DCT NEGIK DCT ADOSA M738 BENUS
Aircraft B738/M-SDE2E3FGHIRWXY/LB1

Departure

Time 2026-05-04 21:22
Airport Cologne Bonn Airport (EDDK)

Arrival

Time 2026-05-04 22:32
Airport Bologna Guglielmo Marconi Airport (LIPE)
Time Latitude Longitude Altitude Speed Heading
2026-05-04 21:16 50.87558 7.12817 231 ft 0 kts 227°
2026-05-04 21:17 50.87558 7.12816 231 ft 0 kts 231°
2026-05-04 21:17 50.87561 7.12809 231 ft 1 kts 294°
2026-05-04 21:17 50.87570 7.12817 231 ft 3 kts 48°
2026-05-04 21:17 50.87611 7.12880 231 ft 12 kts 20°
2026-05-04 21:18 50.87681 7.12826 231 ft 12 kts 319°
2026-05-04 21:18 50.87742 7.12741 231 ft 11 kts 319°
2026-05-04 21:18 50.87800 7.12658 231 ft 11 kts 317°
2026-05-04 21:18 50.87869 7.12611 231 ft 11 kts 355°
2026-05-04 21:19 50.87939 7.12644 233 ft 11 kts 28°
2026-05-04 21:19 50.87991 7.12721 234 ft 10 kts 56°
2026-05-04 21:19 50.87997 7.12743 236 ft 0 kts 75°
2026-05-04 21:20 50.88002 7.12775 236 ft 8 kts 75°
2026-05-04 21:21 50.88006 7.12904 238 ft 15 kts 91°
2026-05-04 21:21 50.87934 7.13074 238 ft 32 kts 137°
2026-05-04 21:21 50.87577 7.13589 238 ft 106 kts 137°
2026-05-04 21:21 50.86867 7.14622 301 ft 161 kts 137°
2026-05-04 21:22 50.86014 7.15835 977 ft 169 kts 138°
2026-05-04 21:22 50.85125 7.17086 1890 ft 166 kts 139°
2026-05-04 21:22 50.84238 7.18341 2487 ft 182 kts 140°
2026-05-04 21:22 50.83222 7.19754 2886 ft 201 kts 141°
2026-05-04 21:23 50.82185 7.21302 3398 ft 210 kts 133°
2026-05-04 21:23 50.81491 7.23421 3995 ft 222 kts 107°
2026-05-04 21:23 50.81345 7.25043 4419 ft 231 kts 99°
2026-05-04 21:23 50.81053 7.28659 4813 ft 264 kts 101°
2026-05-04 21:24 50.80799 7.31584 5474 ft 272 kts 101°
2026-05-04 21:24 50.80539 7.34588 6246 ft 277 kts 102°
2026-05-04 21:24 50.80276 7.37620 6992 ft 281 kts 102°
2026-05-04 21:24 50.80004 7.40700 7754 ft 284 kts 102°
2026-05-04 21:25 50.79732 7.43807 8534 ft 287 kts 102°
2026-05-04 21:25 50.79457 7.46953 9278 ft 292 kts 102°
2026-05-04 21:25 50.79177 7.50138 10015 ft 296 kts 102°
2026-05-04 21:25 50.78855 7.53418 10418 ft 310 kts 108°
2026-05-04 21:26 50.77887 7.56503 10580 ft 322 kts 134°
2026-05-04 21:26 50.76155 7.58801 10896 ft 330 kts 152°
2026-05-04 21:26 50.74158 7.60656 11496 ft 336 kts 154°
2026-05-04 21:26 50.72113 7.62465 12202 ft 339 kts 154°
2026-05-04 21:27 50.70040 7.64283 12938 ft 342 kts 154°
2026-05-04 21:27 50.67954 7.66120 13682 ft 346 kts 154°
2026-05-04 21:27 50.65843 7.67992 14357 ft 350 kts 154°
2026-05-04 21:27 50.63712 7.69892 15048 ft 353 kts 153°
2026-05-04 21:28 50.61569 7.71811 15758 ft 356 kts 153°
2026-05-04 21:28 50.59406 7.73753 16473 ft 359 kts 153°
2026-05-04 21:28 50.57220 7.75718 17121 ft 364 kts 153°
2026-05-04 21:28 50.55010 7.77705 17789 ft 368 kts 153°
2026-05-04 21:29 50.52773 7.79714 18430 ft 372 kts 153°
2026-05-04 21:29 50.50514 7.81743 19007 ft 375 kts 153°
2026-05-04 21:29 50.48236 7.83787 19589 ft 379 kts 153°
2026-05-04 21:29 50.45939 7.85846 20157 ft 382 kts 153°
2026-05-04 21:30 50.43618 7.87924 20720 ft 385 kts 153°
2026-05-04 21:30 50.41278 7.90016 21241 ft 389 kts 153°
2026-05-04 21:30 50.38886 7.92152 21784 ft 393 kts 153°
2026-05-04 21:30 50.36503 7.94279 22349 ft 395 kts 154°
2026-05-04 21:31 50.31704 7.98554 23440 ft 401 kts 154°
2026-05-04 21:31 50.29273 8.00715 23895 ft 404 kts 154°
2026-05-04 21:31 50.26823 8.02890 24362 ft 405 kts 154°
2026-05-04 21:32 50.24391 8.05048 24823 ft 407 kts 154°
2026-05-04 21:32 50.22759 8.06494 25118 ft 408 kts 154°
2026-05-04 21:32 50.20249 8.08715 25546 ft 410 kts 154°
2026-05-04 21:32 50.17779 8.10899 25963 ft 412 kts 154°
2026-05-04 21:33 50.15317 8.13073 26372 ft 414 kts 154°
2026-05-04 21:33 50.12844 8.15254 26776 ft 416 kts 154°
2026-05-04 21:33 50.10276 8.17516 27212 ft 417 kts 154°
2026-05-04 21:33 50.07737 8.19750 27614 ft 419 kts 154°
2026-05-04 21:34 50.05193 8.21986 27984 ft 422 kts 154°
2026-05-04 21:34 50.02645 8.24222 28320 ft 424 kts 154°
2026-05-04 21:34 50.00059 8.26487 28673 ft 426 kts 154°
2026-05-04 21:34 49.97468 8.28756 29015 ft 429 kts 154°
2026-05-04 21:35 49.94870 8.31028 29435 ft 429 kts 155°
2026-05-04 21:35 49.92264 8.33305 29801 ft 430 kts 155°
2026-05-04 21:35 49.89645 8.35588 30018 ft 434 kts 155°
2026-05-04 21:35 49.87013 8.37881 30374 ft 433 kts 155°
2026-05-04 21:36 49.84384 8.40170 30779 ft 432 kts 155°
2026-05-04 21:36 49.81767 8.42446 31118 ft 432 kts 155°
2026-05-04 21:36 49.79146 8.44720 31429 ft 432 kts 155°
2026-05-04 21:36 49.76524 8.46993 31771 ft 431 kts 155°
2026-05-04 21:37 49.73908 8.49258 32132 ft 430 kts 155°
2026-05-04 21:37 49.71304 8.51510 32476 ft 430 kts 155°
2026-05-04 21:37 49.68692 8.53765 32794 ft 429 kts 155°
2026-05-04 21:37 49.66086 8.56013 33115 ft 429 kts 155°
2026-05-04 21:38 49.63480 8.58257 33474 ft 428 kts 155°
2026-05-04 21:38 49.60913 8.60466 33831 ft 426 kts 155°
2026-05-04 21:38 49.58330 8.62686 34103 ft 427 kts 155°
2026-05-04 21:38 49.55735 8.64912 34326 ft 427 kts 155°
2026-05-04 21:39 49.53133 8.67142 34568 ft 428 kts 155°
2026-05-04 21:39 49.50537 8.69365 34828 ft 427 kts 155°
2026-05-04 21:39 49.47940 8.71586 35066 ft 427 kts 155°
2026-05-04 21:39 49.45338 8.73808 35301 ft 428 kts 155°
2026-05-04 21:40 49.42734 8.76030 35536 ft 428 kts 155°
2026-05-04 21:40 49.40131 8.78249 35776 ft 428 kts 155°
2026-05-04 21:40 49.37520 8.80471 35958 ft 429 kts 155°
2026-05-04 21:40 49.34904 8.82693 36184 ft 429 kts 155°
2026-05-04 21:41 49.32271 8.84857 36430 ft 428 kts 156°
2026-05-04 21:41 49.29612 8.86941 36649 ft 428 kts 156°
2026-05-04 21:41 49.26947 8.88989 36848 ft 429 kts 157°
2026-05-04 21:41 49.24278 8.91030 37026 ft 429 kts 157°
2026-05-04 21:42 49.21608 8.93077 37238 ft 429 kts 157°
2026-05-04 21:42 49.18941 8.95127 37443 ft 429 kts 156°
2026-05-04 21:42 49.16269 8.97186 37648 ft 430 kts 156°
2026-05-04 21:42 49.13599 8.99247 37779 ft 431 kts 156°
2026-05-04 21:43 49.10920 9.01316 37963 ft 431 kts 156°
2026-05-04 21:43 49.05525 9.05479 37985 ft 434 kts 156°
2026-05-04 21:44 49.00198 9.09583 37978 ft 430 kts 156°
2026-05-04 21:44 48.94844 9.13697 37979 ft 427 kts 156°
2026-05-04 21:45 48.89557 9.17747 37968 ft 425 kts 156°
2026-05-04 21:45 48.84277 9.21782 37960 ft 424 kts 156°
2026-05-04 21:46 48.78995 9.25808 37976 ft 425 kts 156°
2026-05-04 21:46 48.73725 9.29815 37974 ft 428 kts 156°
2026-05-04 21:47 48.68389 9.33864 37959 ft 431 kts 156°
2026-05-04 21:47 48.63010 9.37935 38001 ft 433 kts 156°
2026-05-04 21:48 48.57599 9.42022 37977 ft 436 kts 156°
2026-05-04 21:48 48.52170 9.46112 37983 ft 437 kts 156°
2026-05-04 21:49 48.46720 9.50209 37995 ft 438 kts 157°
2026-05-04 21:49 48.41267 9.54298 37981 ft 438 kts 156°
2026-05-04 21:50 48.35814 9.58378 37979 ft 437 kts 156°
2026-05-04 21:50 48.30376 9.62436 37969 ft 435 kts 156°
2026-05-04 21:51 48.24965 9.66464 37967 ft 434 kts 157°
2026-05-04 21:51 48.19566 9.70474 37962 ft 432 kts 157°
2026-05-04 21:52 48.14191 9.74457 37967 ft 430 kts 157°
2026-05-04 21:52 48.08827 9.78421 37970 ft 429 kts 157°
2026-05-04 21:53 48.03470 9.82371 37951 ft 429 kts 157°
2026-05-04 21:53 47.98114 9.86311 37967 ft 429 kts 157°
2026-05-04 21:54 47.92750 9.90248 37999 ft 430 kts 157°
2026-05-04 21:54 47.87368 9.94188 37997 ft 432 kts 157°
2026-05-04 21:55 47.81972 9.98130 37989 ft 433 kts 157°
2026-05-04 21:55 47.76551 10.02081 37985 ft 434 kts 157°
2026-05-04 21:56 47.71117 10.06033 38004 ft 435 kts 157°
2026-05-04 21:56 47.65669 10.09986 37997 ft 436 kts 157°
2026-05-04 21:57 47.60212 10.13936 38006 ft 437 kts 157°
2026-05-04 21:57 47.54748 10.17882 37984 ft 437 kts 157°
2026-05-04 21:58 47.49285 10.21818 38001 ft 437 kts 157°
2026-05-04 21:58 47.43817 10.25748 38023 ft 437 kts 157°
2026-05-04 21:59 47.38350 10.29669 38016 ft 437 kts 157°
2026-05-04 21:59 47.32872 10.33588 38029 ft 438 kts 157°
2026-05-04 22:00 47.27382 10.37507 38025 ft 438 kts 157°
2026-05-04 22:00 47.21890 10.41418 38028 ft 437 kts 157°
2026-05-04 22:01 47.16430 10.45299 38049 ft 435 kts 157°
2026-05-04 22:01 47.10969 10.49172 38048 ft 436 kts 157°
2026-05-04 22:02 47.05492 10.53002 38078 ft 435 kts 160°
2026-05-04 22:02 46.99757 10.55742 38093 ft 434 kts 166°
2026-05-04 22:03 46.93945 10.58237 38100 ft 435 kts 166°
2026-05-04 22:03 46.88148 10.60833 38091 ft 436 kts 166°
2026-05-04 22:04 46.82355 10.63446 38092 ft 436 kts 166°
2026-05-04 22:04 46.76551 10.66044 38127 ft 436 kts 166°
2026-05-04 22:05 46.70724 10.68543 38125 ft 435 kts 169°
2026-05-04 22:05 46.64833 10.70492 38129 ft 434 kts 171°
2026-05-04 22:06 46.58915 10.72347 38134 ft 435 kts 170°
2026-05-04 22:06 46.52996 10.74247 38140 ft 437 kts 170°
2026-05-04 22:06 46.50005 10.75217 37650 ft 443 kts 170°
2026-05-04 22:07 46.47000 10.76196 37124 ft 441 kts 170°
2026-05-04 22:07 46.45017 10.76843 36776 ft 439 kts 170°
2026-05-04 22:07 46.42043 10.77811 36231 ft 438 kts 170°
2026-05-04 22:07 46.39075 10.78776 35811 ft 434 kts 170°
2026-05-04 22:08 46.36149 10.79727 35405 ft 430 kts 171°
2026-05-04 22:08 46.33241 10.80670 34991 ft 427 kts 171°
2026-05-04 22:08 46.30349 10.81605 34575 ft 423 kts 171°
2026-05-04 22:08 46.27483 10.82531 34175 ft 420 kts 171°
2026-05-04 22:09 46.24641 10.83449 33704 ft 417 kts 171°
2026-05-04 22:09 46.21822 10.84358 33275 ft 413 kts 171°
2026-05-04 22:09 46.19034 10.85255 32964 ft 407 kts 171°
2026-05-04 22:09 46.16313 10.86129 32546 ft 404 kts 171°
2026-05-04 22:10 46.13551 10.87014 32170 ft 399 kts 171°
2026-05-04 22:10 46.10850 10.87879 31769 ft 396 kts 170°
2026-05-04 22:10 46.08172 10.88736 31384 ft 393 kts 170°
2026-05-04 22:10 46.05517 10.89584 30996 ft 389 kts 170°
2026-05-04 22:11 46.02883 10.90425 30617 ft 386 kts 171°
2026-05-04 22:11 46.00263 10.91262 30229 ft 384 kts 170°
2026-05-04 22:11 45.97665 10.92091 29798 ft 381 kts 170°
2026-05-04 22:11 45.95116 10.92902 29394 ft 377 kts 170°
2026-05-04 22:12 45.92529 10.93725 29001 ft 374 kts 170°
2026-05-04 22:12 45.90035 10.94514 28641 ft 370 kts 171°
2026-05-04 22:12 45.87492 10.94939 27944 ft 367 kts 181°
2026-05-04 22:12 45.84927 10.94980 27090 ft 369 kts 182°
2026-05-04 22:13 45.82369 10.94954 26377 ft 367 kts 183°
2026-05-04 22:13 45.79831 10.94919 25761 ft 362 kts 183°
2026-05-04 22:13 45.77329 10.94895 25173 ft 358 kts 183°
2026-05-04 22:13 45.74850 10.94884 24586 ft 355 kts 182°
2026-05-04 22:14 45.72389 10.94882 24007 ft 352 kts 182°
2026-05-04 22:14 45.69954 10.94888 23392 ft 349 kts 182°
2026-05-04 22:14 45.67532 10.94900 22727 ft 346 kts 182°
2026-05-04 22:14 45.65134 10.94913 22048 ft 344 kts 182°
2026-05-04 22:15 45.62718 10.94928 21394 ft 341 kts 182°
2026-05-04 22:15 45.60378 10.94943 20807 ft 338 kts 182°
2026-05-04 22:15 45.58045 10.94959 20190 ft 336 kts 181°
2026-05-04 22:15 45.55686 10.94975 19577 ft 334 kts 181°
2026-05-04 22:16 45.53365 10.94991 18995 ft 332 kts 181°
2026-05-04 22:16 45.51068 10.95006 18434 ft 330 kts 181°
2026-05-04 22:16 45.48781 10.95022 17816 ft 328 kts 181°
2026-05-04 22:16 45.46497 10.95037 17237 ft 324 kts 181°
2026-05-04 22:17 45.44248 10.95053 16712 ft 320 kts 181°
2026-05-04 22:17 45.42037 10.95068 16164 ft 317 kts 181°
2026-05-04 22:17 45.39846 10.95083 15613 ft 314 kts 181°
2026-05-04 22:17 45.37667 10.95098 15066 ft 311 kts 181°
2026-05-04 22:18 45.35507 10.95113 14543 ft 308 kts 180°
2026-05-04 22:18 45.33371 10.95127 14029 ft 305 kts 180°
2026-05-04 22:18 45.31255 10.95142 13564 ft 300 kts 180°
2026-05-04 22:18 45.29195 10.95156 13178 ft 292 kts 180°
2026-05-04 22:19 45.27193 10.95170 12864 ft 284 kts 180°
2026-05-04 22:19 45.25240 10.95183 12568 ft 280 kts 180°
2026-05-04 22:19 45.23288 10.95196 12228 ft 281 kts 180°
2026-05-04 22:19 45.21317 10.95209 11919 ft 285 kts 180°
2026-05-04 22:20 45.19318 10.95222 11606 ft 289 kts 180°
2026-05-04 22:20 45.17292 10.95236 11287 ft 292 kts 180°
2026-05-04 22:20 45.15266 10.95249 10960 ft 290 kts 180°
2026-05-04 22:20 45.13254 10.95263 10647 ft 288 kts 179°
2026-05-04 22:21 45.11253 10.95277 10358 ft 285 kts 179°
2026-05-04 22:21 45.09302 10.95290 10252 ft 276 kts 179°
2026-05-04 22:21 45.07413 10.95302 10140 ft 267 kts 179°
2026-05-04 22:21 45.05573 10.95315 9919 ft 263 kts 179°
2026-05-04 22:22 45.03748 10.95327 9633 ft 261 kts 179°
2026-05-04 22:22 45.01931 10.95340 9339 ft 260 kts 179°
2026-05-04 22:22 45.00130 10.95352 9062 ft 258 kts 179°
2026-05-04 22:22 44.98286 10.95365 8796 ft 256 kts 179°
2026-05-04 22:23 44.96559 10.95377 8529 ft 255 kts 179°
2026-05-04 22:23 44.94772 10.95389 8261 ft 253 kts 179°
2026-05-04 22:23 44.93037 10.95401 8015 ft 252 kts 179°
2026-05-04 22:23 44.91299 10.95412 7748 ft 251 kts 179°
2026-05-04 22:24 44.89522 10.95425 7487 ft 249 kts 179°
2026-05-04 22:24 44.87793 10.95436 7226 ft 248 kts 179°
2026-05-04 22:24 44.86064 10.95448 6977 ft 247 kts 179°
2026-05-04 22:24 44.84345 10.95540 6623 ft 250 kts 169°
2026-05-04 22:25 44.82660 10.96264 6198 ft 256 kts 160°
2026-05-04 22:25 44.80974 10.97108 5848 ft 257 kts 161°
2026-05-04 22:25 44.79293 10.97930 5458 ft 256 kts 161°
2026-05-04 22:25 44.77600 10.98739 5114 ft 258 kts 161°
2026-05-04 22:26 44.75897 10.99540 4894 ft 256 kts 161°
2026-05-04 22:26 44.74230 11.00315 4750 ft 249 kts 162°
2026-05-04 22:26 44.72607 11.01063 4632 ft 242 kts 162°
2026-05-04 22:26 44.71011 11.01796 4517 ft 235 kts 162°
2026-05-04 22:27 44.69483 11.02495 4416 ft 227 kts 162°
2026-05-04 22:27 44.67981 11.03181 4276 ft 222 kts 162°
2026-05-04 22:27 44.66518 11.03847 4053 ft 220 kts 162°
2026-05-04 22:27 44.65073 11.04504 3864 ft 215 kts 163°
2026-05-04 22:28 44.63669 11.05141 3635 ft 210 kts 163°
2026-05-04 22:28 44.62325 11.05887 3459 ft 202 kts 145°
2026-05-04 22:28 44.61463 11.07416 3359 ft 203 kts 120°
2026-05-04 22:28 44.60727 11.09100 3086 ft 205 kts 121°
2026-05-04 22:29 44.60041 11.10836 2814 ft 202 kts 117°
2026-05-04 22:29 44.59405 11.12582 2545 ft 199 kts 117°
2026-05-04 22:29 44.58786 11.14304 2278 ft 196 kts 117°
2026-05-04 22:29 44.58194 11.15948 2026 ft 191 kts 117°
2026-05-04 22:30 44.57599 11.17597 1787 ft 179 kts 117°
2026-05-04 22:30 44.57054 11.19110 1555 ft 165 kts 119°
2026-05-04 22:30 44.56555 11.20496 1295 ft 153 kts 118°
2026-05-04 22:30 44.56086 11.21793 1086 ft 146 kts 119°
2026-05-04 22:31 44.55643 11.23052 889 ft 144 kts 117°
2026-05-04 22:31 44.55192 11.24339 721 ft 148 kts 119°
2026-05-04 22:31 44.54713 11.25627 467 ft 149 kts 121°
2026-05-04 22:31 44.54234 11.26961 273 ft 148 kts 120°
2026-05-04 22:32 44.53791 11.28186 129 ft 142 kts 120°
2026-05-04 22:32 44.53408 11.29237 127 ft 90 kts 117°
2026-05-04 22:32 44.53263 11.29572 124 ft 28 kts 135°
2026-05-04 22:32 44.53113 11.29726 129 ft 16 kts 147°
2026-05-04 22:33 44.53033 11.29753 129 ft 10 kts 241°
2026-05-04 22:33 44.53056 11.29668 128 ft 11 kts 298°
2026-05-04 22:33 44.53108 11.29530 127 ft 20 kts 297°
2026-05-04 22:33 44.53171 11.29354 129 ft 20 kts 296°
2026-05-04 22:34 44.53231 11.29180 126 ft 19 kts 296°
2026-05-04 22:34 44.53293 11.29015 127 ft 19 kts 296°
2026-05-04 22:34 44.53349 11.28858 129 ft 18 kts 297°
2026-05-04 22:34 44.53406 11.28702 129 ft 18 kts 296°
2026-05-04 22:35 44.53459 11.28551 126 ft 17 kts 297°
2026-05-04 22:35 44.53511 11.28406 125 ft 16 kts 297°
2026-05-04 22:35 44.53561 11.28267 128 ft 16 kts 296°
2026-05-04 22:35 44.53592 11.28180 128 ft 14 kts 296°
2026-05-04 22:36 44.53658 11.28046 129 ft 5 kts 321°
2026-05-04 22:36 44.53659 11.28026 128 ft 1 kts 238°
2026-05-04 22:36 44.53646 11.28041 125 ft 6 kts 128°
2026-05-04 22:36 44.53602 11.28158 126 ft 18 kts 117°
2026-05-04 22:37 44.53563 11.28264 128 ft 15 kts 117°
2026-05-04 22:37 44.53508 11.28263 129 ft 8 kts 276°
2026-05-04 22:37 44.53493 11.28194 127 ft 8 kts 211°
2026-05-04 22:37 44.53449 11.28163 127 ft 6 kts 207°
2026-05-04 22:38 44.53439 11.28156 129 ft 0 kts 206°